Regional Weather Roundup
Issued by NWS

Home | Current Version | Previous Version | Graphics & Text | Print | Product List | Glossary On
Versions: 1 2 3 4 5 6 7 8 9 10 11 12 13 14 15 16 17 18 19 20 21 22 23 24 25 26 27 28 29 30 31 32 33 34 35 36 37 38 39 40 41 42 43 44 45 46 47 48 49 50
000
ASUS44 KMEG 310000
RWRTN
TENNESSEE HOURLY STATE WEATHER ROUNDUP
NATIONAL WEATHER SERVICE MEMPHIS TN
700 PM CDT THU JUL 30 2015

TNZ002-004-019-021-049-052-054-088>092-310100-
WEST TENNESSEE

CITY           SKY/WX    TMP DP  RH WIND       PRES   REMARKS
MEMPHIS INTL   MOSUNNY   87  61  41 N14       30.05S
NWS MEMPHIS      N/A     85 N/A N/A MISG        N/A
JACKSON        SUNNY     86  59  39 N12       30.06R
DYERSBURG        N/A    N/A N/A N/A MISG        N/A
PARIS          SUNNY     79  63  57 N3        30.08S
LEXINGTON      SUNNY     81  64  57 N3        30.05R
$$

TNZ008-025-027-028-033-062-065-066-310100-
NORTH MIDDLE TENNESSEE

CITY           SKY/WX    TMP DP  RH WIND       PRES   REMARKS
NASHVILLE      CLEAR     84  61  45 N13       30.05R
CLARKSVILLE    SUNNY     82  63  52 N8        30.06S
CROSSVILLE     CLEAR     79  62  56 N9        30.09R
$$

TNZ061-075-076-078-094-096-097-310100-
SOUTH MIDDLE TENNESSEE

CITY           SKY/WX    TMP DP  RH WIND       PRES   REMARKS
FAYETTEVILLE   CLEAR     82  57  42 N9        30.03R
TULLAHOMA      CLEAR     81  63  54 N7        30.05R
WINCHESTER     CLEAR     82  63  51 N9        30.04R
MCMINNVILLE    CLEAR     81  68  65 N8        30.05R
COLUMBIA       CLEAR     84  64  51 N6        30.04R
SHELBYVILLE    CLEAR     82  63  51 N6        30.05R
$$

TNZ017-018-042-046-047-310100-
NORTHEAST TENNESSEE

CITY           SKY/WX    TMP DP  RH WIND       PRES   REMARKS
TRI CITIES     PTCLDY    83  68  60 N7        30.00R
ELIZABETHTON   CLEAR     81  68  65 CALM      30.01R
$$

TNZ012-013-036-069-073-074-310100-
CENTRAL EAST TENNESSEE

CITY           SKY/WX    TMP DP  RH WIND       PRES   REMARKS
KNOXVILLE      MOCLDY    85  65  51 N13       29.98R
OAK RIDGE      CLEAR     85  64  49 VRB7      30.01R
GATLINBURG     CLOUDY    84  66  54 N5        29.98R
$$

TNZ083-085-099-310100-
SOUTHEAST TENNESSEE

CITY           SKY/WX    TMP DP  RH WIND       PRES   REMARKS
CHATTANOOGA    PTCLDY    87  67  51 N12       29.97R HX  90
$$

SKY/WX REPORTED AS FAIR MEANS FEW OR NO CLOUDS BELOW
12 THOUSAND FEET.




USA.gov is the U.S. government's official web portal to all federal, state and local government web resources and services.